Location: Naloco
(16.5478°S, 37.1017°E)
Time: 08:47:25
(UTC+00:00)

DMSP B5D2-2 - Visible Passes

Search period start: 04 December 2020 00:00
Search period end: 14 December 2020 00:00
Orbit: 789 x 807 km, 98.3° (Epoch: 03 December)

Date Brightness Start Highest point End Pass type
(mag) Time Alt. Az. Time Alt. Az. Time Alt. Az.
04 Dec 5.7 17:16:36 10° NNW 17:21:14 32° W 17:25:55 10° SW visible
05 Dec 4.5 16:48:49 10° N 16:54:01 66° WNW 16:59:17 10° SSW visible
06 Dec 4.2 16:21:43 10° NNE 16:26:52 60° ESE 16:32:06 10° S visible
07 Dec 6.4 17:35:34 10° NW 17:39:18 20° W 17:43:03 10° SW visible
08 Dec 5.3 17:07:09 10° N 17:12:03 40° W 17:17:00 10° SSW visible
09 Dec 4.2 16:39:36 10° N 16:44:51 84° WNW 16:50:11 10° SSW visible
10 Dec 4.4 16:12:42 10° NNE 16:17:44 48° ESE 16:22:49 10° S visible
10 Dec 6.8 17:55:39 10° WNW 17:57:23 12° W 17:59:06 10° WSW visible
11 Dec 6.1 17:25:52 10° NNW 17:30:05 25° W 17:34:23 10° SW visible
12 Dec 4.9 16:57:46 10° N 17:02:52 51° W 17:08:01 10° SSW visible
13 Dec 4.1 16:30:26 10° NNE 16:35:41 78° ESE 16:41:01 10° S visible
